Wind_Speed
25 25 25 26 26 26 25 25 24 24 25 25 25 24 25 27 29 31 34 37 40 41 42 44 45 45 46 47 48 50 54 56 56 55 55 55 55 55 53 51 49 48 48 47 47 46 44 42 40 38 36 34 33 33 31 27 25 24 23 22 19 16 13 11 7 7 8 7 7 8 7 9 6 4 7 8 10 8 11 16 19 20 21 24 25 26 30 29
26 26 26 26 27 27 27 27 27 26 26 26 27 27 27 27 29 32 34 36 39 42 43 45 46 47 47 48 48 49 53 56 57 57 56 56 57 56 55 53 51 50 49 48 48 48 47 45 42 40 37 36 34 33 32 30 27 24 24 21 19 18 15 11 9 6 5 6 10 10 10 10 6 5 6 8 9 5 11 14 17 19 19 23 24 25 29 28
27 27 27 27 27 27 28 29 29 29 29 28 27 28 29 29 29 31 34 36 38 42 44 45 47 48 48 49 49 50 51 55 58 58 58 58 58 58 57 55 53 51 50 50 50 50 49 47 44 42 39 37 36 34 33 32 29 26 24 22 21 20 16 11 11 10 10 12 14 13 12 12 7 4 3 8 10 4 9 15 15 17 18 22 24 24 27 27
31 30 30 29 28 28 29 29 30 31 31 31 30 29 30 31 31 32 34 36 39 41 44 46 47 49 50 50 50 51 52 54 57 59 59 59 59 59 58 57 55 52 52 51 51 51 50 48 46 44 42 39 38 35 34 34 31 28 25 24 23 21 17 13 16 18 19 16 16 16 15 13 9 3 4 9 6 4 11 14 12 15 17 20 23 24 26 25
34 34 33 32 31 31 30 30 31 31 32 33 34 33 32 32 33 34 34 36 39 41 43 46 48 49 51 52 51 52 52 53 55 59 60 61 60 60 59 58 57 55 53 52 52 52 51 50 49 47 44 41 39 37 35 34 33 30 27 26 25 22 19 16 20 21 19 16 16 17 17 15 10 6 6 9 5 7 10 9 10 13 16 18 23 23 25 24
36 37 37 36 35 34 33 32 31 31 31 33 34 35 35 34 34 35 36 37 39 42 44 46 49 50 51 53 53 53 53 53 54 58 61 62 62 61 61 60 59 57 55 54 53 53 51 50 49 48 46 43 41 39 37 35 35 32 30 28 25 22 20 19 21 20 17 17 18 19 18 15 12 11 9 8 8 8 6 7 10 12 14 17 21 22 23 23
39 40 40 39 38 37 35 34 32 31 31 32 34 36 38 38 36 36 37 39 40 42 44 46 48 51 52 54 55 54 54 54 55 56 60 62 64 63 63 62 61 60 57 56 55 54 52 50 50 49 48 45 43 41 39 37 36 35 33 30 25 23 20 19 23 22 19 19 19 20 17 14 13 11 10 10 9 7 6 11 11 11 13 16 19 20 22 21
41 42 42 42 41 39 38 36 35 34 33 33 34 36 39 40 40 39 38 40 42 42 44 47 49 51 53 54 56 56 56 56 56 56 58 62 65 65 64 63 62 61 60 58 57 55 53 50 50 50 49 47 46 44 42 39 38 36 34 31 26 24 21 20 24 25 22 19 19 19 16 14 13 12 12 13 12 11 11 12 11 10 11 15 18 19 20 19
44 43 43 42 41 40 39 39 39 39 38 37 36 37 40 42 43 43 41 41 43 44 45 47 49 51 53 55 56 57 58 57 57 57 58 61 64 66 66 65 64 63 62 60 58 57 54 52 50 51 50 49 48 46 44 41 39 38 36 32 27 27 25 24 25 25 22 20 19 18 16 14 13 13 13 14 15 14 13 10 8 8 9 13 17 18 18 17
46 45 43 42 42 42 42 43 44 44 42 41 40 40 40 43 45 46 45 44 44 46 47 47 50 52 53 56 57 58 59 59 59 58 59 60 64 67 67 66 65 65 64 63 61 59 56 52 50 51 51 51 50 48 46 43 40 40 38 34 29 29 30 29 26 25 23 21 20 17 15 15 14 14 12 13 14 11 9 6 6 6 8 11 16 17 16 15
47 45 45 45 45 46 46 46 47 47 46 45 44 43 42 44 47 49 49 48 47 47 48 49 50 52 54 56 58 59 61 61 60 60 60 61 63 66 68 68 67 67 66 65 63 60 56 53 51 51 51 52 52 50 48 45 43 42 40 36 32 31 32 33 29 27 26 23 20 16 12 12 15 15 13 13 13 10 8 6 5 4 6 9 13 15 14 14
48 47 48 49 50 50 50 49 49 48 48 47 46 45 45 46 48 51 52 52 51 49 50 51 52 53 55 57 58 60 62 62 63 62 62 62 62 65 68 69 69 68 67 66 64 60 57 55 53 53 52 53 53 52 51 48 45 44 43 39 36 36 35 34 33 29 28 25 19 15 12 11 13 14 14 14 15 13 10 7 6 3 5 7 10 13 12 12
51 51 52 53 55 55 54 53 52 50 49 49 48 47 47 48 50 53 54 55 55 53 51 52 53 54 56 57 58 61 63 64 65 64 64 63 63 64 67 69 70 69 68 67 65 61 59 57 55 54 54 53 53 54 53 50 48 46 45 43 41 42 39 35 35 31 28 27 22 17 15 15 14 14 15 15 17 16 11 9 7 4 3 6 7 10 11 11
55 56 57 59 59 59 58 56 54 52 51 49 49 49 49 50 52 54 56 57 58 57 55 54 55 56 56 58 60 62 65 66 66 66 65 64 64 64 65 68 71 70 69 68 66 64 62 59 57 57 55 53 54 55 55 52 50 48 47 46 44 45 42 38 38 34 30 30 26 20 19 20 16 16 20 20 20 18 14 12 10 7 5 5 5 7 9 10
60 61 63 63 63 62 60 58 56 54 52 51 50 51 51 52 54 56 58 60 60 60 58 56 55 57 58 59 62 64 65 66 66 66 66 65 65 65 65 67 70 71 70 69 67 66 64 62 61 59 56 54 55 56 57 54 52 50 49 48 47 46 45 42 39 37 34 33 29 25 23 24 19 17 22 23 22 20 17 15 12 9 6 5 4 5 7 9
65 67 68 67 66 65 63 61 58 55 53 52 52 52 53 53 56 58 60 62 63 62 61 59 57 57 59 61 64 65 65 65 67 68 68 67 67 66 66 66 68 70 70 70 69 68 66 65 63 60 58 56 56 57 58 56 54 52 50 50 49 47 46 45 41 38 37 36 32 30 28 27 24 20 23 24 23 22 19 16 14 11 8 5 4 3 5 7
69 70 71 70 69 68 65 63 60 57 55 54 54 54 55 55 57 60 62 64 64 64 63 62 60 59 60 62 63 64 64 65 67 68 68 69 68 67 67 67 67 69 71 70 70 69 68 67 64 62 60 58 56 58 59 59 57 55 53 52 51 50 48 47 44 40 39 39 35 32 30 28 26 24 24 24 23 23 20 17 16 13 9 7 5 3 2 4
73 74 73 73 71 70 67 64 61 58 56 55 55 56 56 57 59 62 64 65 66 66 65 64 63 61 61 62 62 63 64 66 67 69 70 70 70 70 69 68 67 68 70 71 71 71 70 68 66 64 62 59 58 59 61 61 59 57 55 54 53 52 50 48 46 43 41 41 38 34 31 28 25 25 26 26 25 24 21 19 18 14 10 8 6 5 3 1
76 76 76 75 73 71 67 64 61 58 56 55 55 57 58 59 61 63 65 67 67 67 67 67 66 64 62 62 62 63 65 68 69 70 72 73 72 72 71 69 67 67 68 70 71 72 72 70 68 66 65 63 62 61 62 62 60 59 58 55 54 53 52 50 48 46 43 42 39 36 33 30 26 25 28 29 28 26 23 21 19 15 12 10 8 8 6 2
78 78 78 76 73 70 66 62 59 56 55 54 54 56 58 60 62 64 66 68 69 69 69 69 68 66 64 62 63 64 66 70 71 72 73 74 74 73 72 71 69 68 68 70 71 73 73 72 70 70 69 68 65 63 62 62 61 61 60 56 54 54 54 53 50 49 47 44 41 38 35 32 29 27 29 31 31 29 26 24 21 16 14 13 12 11 9 6
80 80 78 75 71 66 61 57 54 52 51 51 52 54 58 61 63 64 66 69 70 71 71 70 69 68 66 64 64 65 67 70 72 72 73 74 74 74 74 73 71 70 69 70 72 73 73 72 73 75 73 70 66 63 62 62 62 63 61 57 56 55 55 55 53 52 51 48 45 41 36 34 32 30 30 31 33 32 29 26 23 19 15 14 13 13 11 8
81 80 77 71 64 58 52 48 46 44 44 45 48 52 56 59 62 64 67 69 71 71 72 72 71 70 69 67 66 67 68 70 73 73 73 74 75 75 75 75 74 73 72 71 72 73 74 74 77 77 74 71 68 66 63 62 62 63 62 59 58 57 57 57 56 55 54 51 49 46 41 38 34 31 29 29 31 33 31 27 25 22 18 15 15 14 12 9
81 78 71 62 55 48 43 40 38 37 37 39 42 47 52 57 60 64 67 69 71 71 72 72 72 71 71 70 69 68 69 71 73 75 75 75 77 77 77 77 77 75 74 72 72 73 75 77 79 78 76 73 70 68 65 63 62 64 64 62 60 60 58 58 57 56 55 54 52 50 46 42 37 32 29 29 31 32 32 29 25 22 19 17 16 15 12 10
79 72 62 53 46 41 37 34 32 31 31 33 37 41 47 52 57 62 66 69 70 71 72 73 73 73 73 73 71 69 70 71 73 75 76 76 77 78 79 80 79 77 76 74 73 74 77 79 80 79 77 75 72 70 67 65 64 64 65 64 62 62 60 59 58 57 57 56 54 52 49 44 38 33 30 30 32 31 30 28 25 22 21 19 17 17 14 12
75 64 53 46 41 36 33 30 28 27 27 29 32 36 41 47 53 59 63 67 69 71 72 73 74 75 75 75 73 71 71 72 74 76 77 77 78 79 80 80 80 79 78 76 75 76 78 79 80 80 79 76 74 72 69 67 66 65 66 66 64 63 62 61 60 59 59 59 57 55 51 46 40 35 32 31 33 32 29 28 27 25 23 21 19 18 16 15
68 56 48 42 37 33 29 27 24 23 23 24 27 31 35 41 48 54 60 64 67 70 72 73 75 76 76 76 75 74 72 73 74 76 78 79 78 80 81 81 81 81 80 79 78 78 79 78 79 81 80 78 76 74 72 70 69 68 68 68 66 65 64 63 62 62 62 60 59 57 54 49 44 40 35 34 35 34 32 30 28 27 25 23 21 19 18 17
62 51 45 39 33 29 26 23 21 19 18 19 22 26 31 36 43 49 55 60 65 69 72 74 75 76 76 76 76 75 73 73 75 76 78 79 80 80 81 82 82 82 82 81 81 81 79 77 78 80 80 79 78 76 75 73 71 71 71 69 68 67 66 66 64 63 62 61 60 58 56 52 49 45 40 37 36 35 34 32 30 28 26 25 24 21 19 19
59 49 43 37 31 26 22 19 17 16 15 16 19 22 26 31 37 44 50 56 62 67 71 73 75 75 76 76 76 76 74 74 75 76 77 80 80 80 81 83 83 83 83 83 83 83 80 77 77 79 80 80 80 79 77 75 74 75 74 71 70 69 68 67 66 64 62 61 60 59 57 54 52 50 46 41 37 34 33 33 32 29 27 27 26 24 22 21
56 48 43 36 30 24 20 16 14 13 13 15 17 20 23 27 32 39 45 52 58 64 68 71 73 75 76 77 77 77 76 75 75 76 77 79 81 81 82 84 84 84 84 84 84 84 80 78 77 77 78 80 82 82 79 77 77 78 76 73 71 69 68 67 66 64 62 62 61 60 59 56 55 54 51 46 41 35 32 32 33 32 29 28 26 25 24 22
55 47 41 35 29 22 17 14 12 11 12 14 17 18 20 23 27 33 39 46 53 59 64 68 71 74 75 76 77 77 77 76 75 77 78 79 81 83 83 84 84 84 84 85 86 84 81 79 78 76 78 80 83 83 80 79 80 80 78 75 72 70 69 67 66 65 63 63 63 61 60 58 56 55 54 51 45 39 35 33 35 35 33 31 28 25 24 22
54 46 40 34 28 21 16 12 11 11 12 14 15 16 17 19 23 28 34 40 47 54 59 64 68 71 74 76 76 77 78 78 77 78 79 79 81 83 83 83 84 84 84 85 86 85 83 81 79 78 80 82 83 83 82 81 82 81 79 76 73 71 69 67 66 65 65 66 66 64 62 60 59 57 55 54 49 43 38 35 35 35 33 31 29 27 25 24
53 45 40 33 27 21 16 12 11 11 11 12 12 12 13 15 19 23 28 34 41 48 54 60 65 68 72 75 76 77 78 79 79 79 80 81 81 83 84 83 83 84 84 86 86 85 84 83 82 82 83 83 82 83 83 82 82 81 80 77 74 72 70 68 67 67 68 69 68 66 64 62 61 59 55 54 52 47 41 37 36 36 33 32 32 30 28 26
53 44 39 32 27 21 17 14 12 11 10 10 10 9 10 12 15 19 23 28 34 41 48 55 61 65 70 73 76 77 78 79 80 81 81 81 81 82 84 83 83 84 85 86 87 86 86 85 85 85 85 84 83 82 83 84 83 83 81 78 76 73 71 69 68 68 69 71 70 68 66 64 64 61 58 56 54 51 46 42 39 38 36 34 33 33 30 29
54 44 37 31 26 21 17 14 11 9 8 7 7 7 9 11 13 16 19 23 29 35 42 48 55 60 66 71 75 77 79 80 81 81 81 81 80 80 81 82 83 84 86 87 87 87 87 87 87 87 86 85 84 84 84 85 85 85 83 81 78 75 73 72 72 71 72 73 71 69 67 67 66 64 62 60 57 55 52 48 45 43 39 36 35 34 33 31
55 44 36 29 24 20 16 13 11 7 5 5 5 6 8 10 12 15 17 21 25 30 36 43 49 55 60 66 72 76 78 79 80 80 81 81 81 80 80 82 83 84 86 88 87 87 88 88 88 89 88 87 86 87 86 86 86 87 86 83 81 78 76 76 76 76 77 74 71 70 69 69 69 66 64 63 61 59 57 54 52 49 45 41 38 36 35 34
57 44 36 27 22 19 15 12 10 7 5 4 4 6 7 9 11 13 16 19 23 27 32 38 44 50 56 62 68 72 76 78 79 80 81 82 81 81 81 82 84 84 86 87 88 88 88 89 90 90 90 89 90 89 88 87 86 86 85 84 82 81 80 80 79 79 78 74 70 70 71 71 70 67 65 63 62 61 60 58 57 54 51 48 44 41 39 39
58 44 35 26 20 17 15 13 10 8 6 5 5 7 9 11 12 14 16 19 22 26 30 35 40 46 52 59 64 68 73 75 78 79 81 82 82 82 82 82 83 84 85 87 89 89 89 90 91 91 92 92 92 91 90 89 87 85 83 84 85 85 84 82 82 81 78 74 71 71 72 72 71 69 67 65 63 63 62 61 60 58 56 54 52 49 47 46
60 45 34 26 19 16 15 13 11 9 8 8 9 10 11 13 14 16 18 20 23 26 30 34 38 43 49 54 60 65 69 73 75 78 80 82 83 83 83 82 83 84 85 86 88 90 90 91 92 92 93 94 94 93 92 91 89 86 84 85 87 86 85 83 83 82 80 76 73 72 72 72 71 69 68 66 65 64 63 62 61 61 60 59 58 57 55 51
62 46 34 25 19 15 15 14 14 12 10 10 11 12 13 14 15 17 19 22 25 27 30 34 38 43 47 51 55 61 66 70 73 76 78 81 83 84 83 83 83 84 85 87 88 90 91 92 92 93 94 95 95 95 94 92 91 89 87 87 87 86 86 85 85 84 82 80 77 74 72 71 71 70 69 67 66 65 64 63 62 62 61 61 61 60 58 54
64 49 36 26 19 16 15 15 15 14 13 12 12 13 14 15 17 19 21 24 26 29 32 34 37 42 47 50 53 58 63 67 71 74 77 80 83 84 84 83 83 84 85 86 88 90 92 92 92 93 94 95 96 96 96 95 93 92 90 88 87 87 86 85 85 84 84 82 80 77 74 72 71 71 70 69 68 67 65 65 64 63 62 62 62 62 60 57
66 52 38 28 21 17 16 16 16 15 14 14 14 15 16 17 19 21 23 25 27 29 32 35 37 40 44 49 53 57 61 66 70 73 76 79 82 84 84 84 84 84 85 86 88 89 92 93 93 93 94 95 96 97 97 97 96 95 92 90 89 88 86 86 85 85 84 83 81 79 75 74 74 74 72 71 70 69 68 66 65 65 64 63 63 63 62 60
67 54 40 29 23 18 17 16 16 15 15 15 15 16 17 19 21 22 24 26 26 27 30 33 37 40 42 45 51 56 60 65 69 72 76 78 81 83 84 84 85 85 85 86 88 89 91 93 94 94 94 95 96 97 98 98 98 97 95 92 90 89 87 87 86 85 85 84 83 81 78 76 75 75 74 73 72 71 70 69 68 66 65 65 64 63 63 62
67 56 42 31 25 20 18 18 17 16 16 16 16 17 18 19 20 23 25 27 25 25 26 30 36 40 42 43 47 53 58 63 67 71 75 77 79 81 83 84 84 85 86 86 87 89 91 93 95 96 96 95 96 97 98 99 99 98 96 95 92 90 88 88 87 87 86 86 84 83 81 78 76 76 76 75 74 72 71 71 70 69 68 66 65 63 63 63
68 58 44 33 26 22 20 19 18 17 17 17 17 17 18 18 19 22 26 27 25 22 23 27 32 38 43 44 45 49 54 59 64 68 72 75 77 80 82 83 84 85 86 87 88 89 90 92 95 97 97 98 98 98 98 99 99 99 98 96 93 91 89 88 88 88 88 87 85 84 82 81 80 79 78 78 76 74 73 72 71 71 69 68 66 65 64 64
69 60 46 35 27 23 21 20 19 18 18 18 18 19 19 18 19 22 26 26 24 20 19 22 27 34 41 46 47 49 51 55 60 64 68 71 75 78 81 83 85 85 86 87 88 89 90 91 94 96 98 99 99 99 98 98 98 98 97 96 95 93 92 90 90 89 89 89 87 85 84 83 82 81 80 79 78 76 74 73 72 71 70 68 67 66 66 65
70 62 50 37 28 24 22 21 20 20 19 19 20 20 20 20 21 23 26 27 24 19 16 18 22 29 37 44 48 50 51 53 56 60 64 68 72 75 79 82 84 86 86 87 88 89 90 92 94 96 98 99 100 100 99 98 97 97 97 97 96 95 94 93 92 91 90 90 89 88 87 86 84 83 82 81 80 79 77 75 73 72 71 69 68 67 67 65
70 63 52 39 29 26 23 21 21 22 21 20 21 21 22 22 23 25 26 27 25 20 15 14 17 23 31 38 45 50 52 53 54 56 60 65 69 72 76 79 82 85 86 87 88 89 90 92 94 95 97 98 100 100 100 99 97 97 97 96 96 96 96 95 94 93 92 91 90 90 89 88 87 85 84 84 82 81 80 77 75 73 72 71 69 68 67 66
70 64 53 40 30 26 24 22 22 22 22 22 22 22 23 23 23 25 27 27 25 20 16 14 14 17 24 32 40 46 51 54 55 56 58 62 67 70 73 77 80 83 85 86 88 89 90 91 93 95 96 97 98 99 100 99 98 98 97 96 97 97 97 97 96 95 94 93 92 91 91 91 90 88 87 85 84 83 82 80 78 76 75 73 71 70 68 67
70 64 55 41 30 26 25 22 21 22 22 22 23 23 23 23 23 25 27 28 26 21 16 14 12 13 17 25 33 40 46 51 55 57 58 60 64 68 72 75 78 81 83 85 87 88 90 90 92 93 95 95 95 96 98 99 99 98 97 96 97 97 98 98 97 97 96 95 94 93 92 92 92 91 90 88 86 84 83 82 81 79 78 76 75 73 71 69
70 64 56 43 31 26 24 22 21 21 22 22 23 24 23 23 23 25 27 29 28 23 18 14 12 11 13 18 24 32 40 47 52 57 59 60 62 66 70 74 76 79 81 84 86 87 89 90 90 91 92 93 93 94 96 97 98 99 98 97 97 97 98 98 98 98 97 96 96 95 94 93 93 93 92 91 90 88 86 85 84 82 81 79 78 76 74 72
70 65 57 45 33 26 24 22 21 20 20 21 22 24 24 23 23 24 26 29 29 25 19 15 13 11 10 12 18 24 31 39 47 53 58 61 63 64 67 71 75 77 80 82 84 86 87 89 89 90 91 91 92 94 95 96 97 98 98 99 98 98 99 99 99 99 98 97 97 96 95 94 94 94 94 94 93 92 90 89 87 85 83 81 80 78 76 74
70 65 58 46 35 27 24 23 21 19 20 21 21 22 24 23 22 23 25 27 29 28 22 17 14 12 9 10 13 18 24 31 39 46 53 59 63 65 66 69 72 76 78 80 82 83 86 87 87 88 89 90 90 92 94 95 96 97 98 99 100 101 100 100 99 99 98 98 98 98 97 97 96 95 95 95 95 95 94 92 90 88 86 84 82 81 79 77
Wind_Direction
311 309 308 306 304 302 300 297 292 287 282 278 273 265 256 247 242 239 237 233 230 228 227 228 227 224 222 222 221 220 219 218 216 215 214 214 213 213 213 211 211 212 212 213 214 213 212 212 212 213 214 215 214 213 210 206 205 202 200 198 192 192 185 179 188 181 169 180 213 236 243 242 245 262 281 303 314 332 31 23 5 358 3 9 12 14 12 17
309 308 306 304 302 300 297 295 292 289 284 279 275 269 261 253 245 240 237 235 232 230 227 227 228 226 223 222 221 220 220 219 217 216 215 215 215 214 213 212 211 212 212 212 213 212 212 211 212 213 213 215 215 214 212 210 207 205 204 199 194 193 186 178 183 198 187 196 224 235 239 239 235 243 266 290 290 332 24 0 343 347 358 5 7 12 12 16
310 306 304 301 299 297 295 293 290 288 285 281 276 271 266 258 250 243 238 236 234 231 229 226 226 227 225 222 221 221 220 219 218 216 215 215 216 215 214 213 212 212 213 213 213 212 211 210 211 212 213 214 216 215 213 212 209 208 205 198 199 193 184 176 173 206 220 205 219 230 239 240 229 228 287 281 263 286 328 316 319 337 354 2 3 9 12 16
312 309 305 301 298 296 294 291 288 285 284 281 277 273 268 262 255 247 241 237 234 232 230 227 226 227 227 224 221 221 221 220 218 217 217 216 216 216 216 215 213 213 214 214 213 212 211 210 211 211 212 213 215 216 214 214 211 209 205 198 202 194 182 175 172 200 217 210 220 233 244 241 215 196 306 268 250 307 297 296 313 334 354 2 0 6 10 14
313 311 308 305 301 297 294 291 287 283 281 279 277 273 269 264 258 252 244 238 235 233 231 229 226 225 227 226 222 221 221 220 219 218 217 217 216 216 216 216 215 214 214 215 214 213 211 210 210 210 211 212 215 216 215 214 212 209 205 199 204 197 183 179 179 194 213 218 227 236 245 244 217 199 255 255 273 309 291 304 326 339 357 1 359 4 8 13
315 313 311 307 304 300 296 292 287 283 279 276 274 271 268 265 260 255 249 242 236 234 232 230 227 225 225 227 225 221 221 221 220 218 217 217 217 216 216 216 216 215 215 216 215 214 212 211 211 210 210 212 214 216 215 214 212 209 205 202 204 197 188 190 193 196 209 219 225 231 240 242 220 198 219 245 266 283 301 344 341 350 3 1 358 3 7 11
315 314 311 309 306 302 298 293 288 282 278 275 271 268 266 263 260 256 252 246 239 234 232 231 229 226 225 226 226 223 220 221 220 219 217 217 217 217 217 216 216 216 216 216 216 214 213 211 211 211 210 211 213 215 215 214 212 209 205 204 201 193 192 199 204 205 209 213 216 224 232 233 222 204 218 243 252 269 324 344 344 355 4 2 1 4 6 11
314 312 310 308 305 302 299 294 289 283 278 275 270 266 263 261 258 255 252 248 243 236 232 231 229 227 226 225 225 225 222 220 220 219 218 217 217 218 217 217 217 217 216 216 216 215 214 212 212 212 212 211 212 213 214 214 212 209 206 204 196 186 191 202 205 206 207 210 213 220 223 223 224 219 230 245 249 260 287 314 332 343 357 4 5 7 8 13
313 311 309 307 304 301 299 295 291 285 279 275 270 265 260 258 256 254 251 247 244 239 233 230 229 228 227 225 225 225 223 220 220 220 218 217 217 218 217 217 217 217 217 217 216 216 214 213 211 212 213 212 212 213 214 214 211 209 206 203 191 181 191 203 204 203 201 204 211 216 220 221 225 225 234 250 253 257 269 290 316 327 347 2 7 11 10 17
313 311 308 306 304 301 298 295 292 287 281 275 270 265 259 255 254 252 250 247 244 241 236 231 228 228 227 225 224 224 224 222 219 219 219 218 217 217 217 217 217 217 217 217 217 216 215 213 213 213 213 213 212 213 214 213 211 210 207 202 188 180 197 207 205 202 198 198 203 208 218 227 228 226 234 251 257 259 264 282 300 316 341 359 9 13 14 21
313 310 309 307 304 302 299 295 291 287 281 276 270 264 258 254 251 250 249 247 243 240 237 233 228 226 226 225 224 224 224 223 220 219 219 218 217 217 217 217 217 218 217 217 217 216 215 215 214 213 213 213 213 212 213 212 211 210 207 201 185 182 204 212 207 204 199 196 196 198 212 226 229 230 231 240 251 257 263 277 281 300 339 358 12 16 17 22
313 311 309 307 305 303 299 296 291 286 280 275 269 263 257 252 249 248 247 246 244 240 237 234 230 225 225 225 224 223 223 223 221 219 218 219 218 217 217 216 216 217 217 217 216 216 217 216 215 214 213 213 213 212 213 211 210 209 206 200 186 185 204 212 209 205 199 196 189 185 196 208 221 231 231 234 242 251 260 267 260 272 336 355 12 16 15 20
314 311 309 308 305 303 300 296 291 285 279 273 267 261 255 250 247 245 244 244 243 241 237 234 231 227 224 224 224 223 223 223 222 220 218 218 218 217 217 217 217 217 217 217 217 217 217 217 216 216 214 213 213 213 213 212 210 209 206 201 191 190 202 209 209 205 197 195 190 182 187 196 213 228 228 233 236 242 253 253 244 245 308 340 3 11 11 17
316 314 311 309 305 302 299 295 290 285 278 272 266 259 253 248 245 242 242 241 241 240 238 234 232 228 224 223 223 223 222 222 222 221 219 218 219 218 217 217 217 217 217 217 217 217 217 217 217 217 215 213 214 214 213 212 211 210 207 203 197 195 201 206 209 206 198 195 194 189 190 193 205 221 223 228 232 235 245 244 238 240 269 310 343 3 9 18
318 315 312 308 305 301 298 294 289 283 276 269 263 257 251 246 242 240 239 239 239 239 238 235 232 230 226 223 222 222 222 222 222 221 220 219 219 219 218 217 217 217 217 217 218 218 217 217 217 217 215 214 214 214 213 212 211 210 208 206 202 199 201 206 208 207 201 197 197 196 195 194 196 210 219 225 231 236 242 243 240 243 254 282 313 352 8 23
318 315 311 308 304 301 297 292 287 280 273 266 260 254 249 243 240 238 237 237 237 237 237 235 232 230 228 224 222 222 221 221 221 221 221 219 219 219 218 217 216 216 216 217 218 219 218 217 218 217 216 215 215 214 213 212 211 210 209 208 205 202 203 206 207 206 202 199 201 202 200 196 194 205 219 227 234 238 240 239 241 244 245 258 274 316 5 31
318 314 311 307 304 300 296 292 286 279 271 263 257 251 246 241 237 235 234 234 235 235 235 235 232 230 228 226 223 221 221 221 221 221 221 220 219 218 219 218 216 216 216 216 217 218 218 218 217 217 217 216 216 215 213 212 211 210 209 209 207 205 205 206 206 206 203 201 204 206 205 200 196 205 219 227 231 234 237 236 239 240 234 237 239 249 332 42
318 314 311 307 304 301 297 291 285 278 270 262 255 249 244 239 235 233 232 232 232 233 233 233 232 230 228 227 224 221 220 221 221 220 220 220 219 218 218 218 217 216 215 215 216 218 219 218 217 217 218 217 216 216 214 212 211 210 210 209 208 207 207 206 207 207 206 205 206 209 209 206 202 206 215 223 226 228 233 236 237 235 225 227 222 222 257 47
319 315 311 308 305 302 297 291 285 278 270 262 254 248 243 238 234 231 230 229 229 230 231 231 231 230 227 226 224 221 220 220 220 220 219 219 219 218 218 217 217 216 216 215 216 217 218 218 217 217 218 217 217 216 215 213 212 211 211 210 208 208 208 208 208 209 209 209 208 209 211 209 208 210 215 220 225 228 231 233 233 227 219 225 224 219 231 229
319 316 313 310 306 302 297 290 284 277 269 261 253 246 241 237 233 230 228 227 226 227 228 229 229 229 227 225 223 221 220 219 219 219 219 219 218 218 218 217 216 216 215 215 215 216 217 217 217 217 217 217 217 216 215 214 213 213 212 210 209 209 210 210 210 209 210 211 209 209 211 213 216 219 219 221 223 227 230 231 228 221 218 225 224 220 222 228
321 317 314 311 307 301 296 289 282 275 267 259 251 244 238 234 232 229 226 225 224 224 225 226 227 227 226 224 222 221 220 219 219 219 219 219 219 218 218 217 216 216 216 215 215 215 216 217 218 217 217 217 218 217 215 214 214 214 213 210 210 210 210 211 211 210 210 211 210 210 213 216 220 224 225 224 223 225 228 228 225 222 224 227 223 218 219 224
322 319 316 311 306 301 294 288 281 273 264 256 248 241 235 231 229 227 225 223 222 221 222 223 224 225 225 224 222 220 219 219 218 218 218 218 218 218 218 217 217 216 216 215 215 215 215 217 218 218 217 217 218 217 216 215 215 215 213 210 209 211 211 211 212 212 211 211 209 209 213 215 220 225 226 225 224 224 224 224 225 227 228 226 219 217 218 221
324 321 317 312 307 301 295 287 280 271 262 253 245 238 233 228 226 225 224 222 221 220 220 220 221 222 223 223 221 219 218 218 218 217 217 217 217 217 217 217 217 216 216 216 215 214 214 216 217 217 216 216 217 217 216 215 216 216 214 211 209 210 211 211 213 213 213 213 210 209 212 214 217 222 223 225 227 224 221 221 224 225 225 224 218 216 216 221
327 323 318 314 309 303 296 288 280 271 261 252 244 237 231 226 223 221 221 221 220 218 218 218 219 219 220 221 220 219 218 217 217 217 217 217 217 217 217 217 217 216 216 215 215 215 215 216 217 217 216 216 217 217 216 216 216 216 215 213 210 210 212 212 212 213 214 215 213 211 212 213 213 215 217 223 227 222 218 218 218 218 221 222 219 216 217 222
329 325 321 317 312 305 298 290 282 272 261 251 243 236 231 226 221 219 218 218 218 217 216 216 217 217 218 219 219 218 217 216 216 217 216 216 216 217 217 217 217 216 215 215 215 216 216 217 217 217 217 216 216 217 217 216 217 217 217 215 212 210 211 212 212 213 214 215 215 213 213 212 209 210 213 218 221 217 213 214 214 215 219 220 217 214 216 221
332 328 325 321 315 308 301 294 285 274 262 251 242 235 230 225 221 218 216 215 215 215 215 215 216 217 217 218 218 217 216 215 215 216 216 216 216 216 217 217 217 216 216 215 215 217 217 217 217 218 217 216 216 216 216 217 217 217 217 216 214 211 211 212 213 213 214 215 216 215 214 213 211 211 214 217 218 215 213 213 214 215 216 216 215 214 215 217
336 333 330 326 320 312 304 296 286 274 262 251 241 234 229 226 222 219 215 213 212 213 213 214 214 215 216 217 218 218 216 215 215 215 215 215 215 216 216 217 217 217 216 216 216 217 218 217 217 218 218 217 216 216 216 216 217 218 217 216 215 213 211 212 213 214 214 215 217 217 215 214 213 213 215 218 220 219 218 218 218 216 215 216 216 216 214 212
340 338 334 331 326 317 307 296 283 271 259 251 243 235 230 227 224 221 217 214 212 211 212 213 213 214 215 215 217 217 216 216 215 214 215 215 215 215 215 216 216 216 217 216 217 217 217 217 217 218 218 218 217 217 216 216 217 218 217 216 216 215 213 212 214 214 214 215 218 219 218 216 214 213 214 217 220 221 222 222 220 217 216 217 218 217 214 211
344 342 339 336 331 322 310 296 281 270 260 254 249 242 235 231 227 223 220 216 213 211 211 212 212 213 214 214 215 216 216 216 215 215 215 215 215 215 215 215 216 216 216 217 217 218 217 217 218 218 219 219 218 218 216 217 218 219 218 216 216 216 214 213 214 214 214 216 219 220 219 218 217 216 215 216 218 220 224 226 224 218 214 214 215 216 214 213
347 345 343 339 333 326 315 300 286 274 264 259 257 253 243 236 231 227 222 219 216 213 211 211 211 212 213 213 214 214 215 215 215 215 215 214 215 215 216 215 215 215 216 217 218 218 217 217 218 218 219 219 220 219 217 218 219 219 218 217 216 216 216 215 214 214 214 216 218 220 220 219 219 218 217 217 218 220 223 228 227 221 216 212 211 215 216 215
350 347 345 341 337 331 322 308 294 282 272 268 266 260 250 238 232 229 224 220 217 215 213 211 211 211 212 213 213 213 214 215 215 214 215 215 214 215 216 216 215 215 215 217 218 218 217 217 217 218 219 220 220 219 218 219 220 219 219 219 218 217 217 216 215 214 214 217 218 219 220 220 220 220 219 219 219 220 222 226 227 224 221 218 214 216 219 217
351 349 346 343 340 335 328 317 304 293 284 280 274 264 252 239 232 228 225 221 218 217 215 213 212 212 212 212 212 213 213 214 215 214 214 215 214 215 215 216 216 215 215 216 217 217 217 217 217 218 219 220 220 220 219 220 220 220 220 219 219 219 218 217 217 215 215 217 217 218 219 220 220 220 220 220 220 220 220 222 225 223 223 223 219 219 221 220
353 351 347 343 341 337 331 323 315 305 294 286 277 262 249 240 232 228 225 222 219 218 218 216 215 213 213 213 212 212 213 214 215 214 214 215 215 215 215 216 216 216 216 217 217 217 217 217 217 218 220 221 221 221 220 220 220 220 219 219 219 219 219 219 218 217 218 218 217 217 218 220 220 220 220 220 221 222 220 219 222 224 224 224 223 223 224 224
355 352 348 344 342 340 336 332 326 315 299 284 274 260 247 240 234 229 227 224 221 219 218 218 218 217 216 215 214 213 213 213 214 215 215 215 215 215 215 216 216 216 216 217 217 217 217 217 218 218 219 221 221 222 221 221 220 219 219 218 218 218 219 220 219 218 218 218 216 217 218 220 221 220 220 220 221 222 223 222 223 226 227 225 224 225 227 228
356 353 349 347 346 344 340 338 334 328 316 294 279 266 253 245 238 231 228 226 223 222 220 219 219 219 219 218 216 214 214 213 214 215 215 215 215 216 216 216 216 217 217 217 217 217 217 217 218 219 219 220 221 222 222 222 221 220 218 218 218 218 219 220 220 219 219 218 216 217 219 220 220 220 221 222 222 223 224 225 225 227 228 228 226 227 229 233
357 354 351 350 351 350 346 347 348 347 344 325 297 282 270 261 253 243 235 230 226 224 223 221 220 220 220 220 218 217 215 214 214 215 215 214 215 216 216 216 216 216 217 217 217 217 217 217 218 219 219 220 221 222 223 223 222 221 220 219 218 218 219 220 221 222 221 219 217 218 220 221 219 219 222 223 224 224 224 225 226 227 228 228 228 229 232 236
358 354 351 351 354 356 355 357 358 353 344 325 299 284 274 269 264 257 251 245 236 229 226 224 223 222 222 222 220 219 218 216 215 215 215 215 215 216 216 216 216 216 217 217 217 217 218 218 218 219 219 220 221 222 223 223 223 222 220 220 220 219 219 220 221 223 222 219 218 219 221 222 220 220 222 223 224 225 225 225 226 226 227 228 230 231 233 235
358 354 350 349 352 354 352 349 344 334 325 313 300 288 278 272 268 265 261 257 251 242 235 229 225 224 223 223 222 221 219 219 217 217 216 215 215 216 217 217 217 217 217 217 217 218 218 218 219 219 219 220 221 222 222 223 223 222 221 220 221 220 220 220 222 223 222 220 219 220 222 223 221 221 222 224 225 226 226 226 226 226 226 228 230 232 234 235
358 355 350 347 348 348 342 337 331 322 316 307 297 288 282 277 274 271 267 263 258 252 245 237 231 228 225 224 223 222 222 220 219 218 217 216 216 216 217 217 217 217 217 217 217 218 219 219 219 220 220 220 221 222 222 222 223 222 221 221 221 221 221 221 222 223 223 221 220 221 222 223 223 222 223 224 225 226 227 226 226 226 226 227 230 233 234 235
358 355 350 345 343 342 338 333 328 321 312 299 286 276 272 272 273 272 270 266 262 257 252 246 239 233 228 225 224 223 223 222 221 220 218 217 216 216 217 217 218 218 217 217 217 218 219 219 220 221 221 221 222 222 222 223 223 223 222 221 221 222 222 222 223 224 224 222 221 221 222 223 223 223 223 225 226 226 227 227 227 227 227 227 229 232 234 235
357 355 350 343 339 338 333 328 325 320 309 294 282 274 273 276 279 278 277 272 266 260 255 251 246 240 233 228 225 224 223 223 222 221 220 219 217 217 217 218 218 218 218 217 217 217 218 219 220 221 222 222 222 223 223 223 223 223 222 221 221 221 221 222 223 224 225 224 223 223 223 223 224 224 224 225 226 227 227 227 227 227 228 228 229 230 232 234
357 355 350 343 336 333 327 321 318 315 306 295 287 282 281 284 290 292 290 285 276 265 255 248 245 243 238 231 227 226 225 224 223 222 221 220 219 217 217 218 219 219 218 218 218 218 218 219 220 221 222 223 223 223 223 224 224 224 223 222 222 221 221 222 222 224 225 225 225 225 224 224 225 226 226 225 226 227 227 228 228 228 228 229 229 230 231 233
356 354 350 342 335 329 322 317 313 311 307 300 295 292 288 290 298 303 301 296 288 276 260 247 239 238 238 234 229 227 226 225 225 224 223 221 220 219 218 218 219 220 219 219 219 219 219 219 220 221 222 223 223 224 224 224 224 224 224 223 222 222 222 222 222 223 224 225 225 226 225 225 226 227 227 227 227 227 228 228 229 228 228 229 230 230 231 233
356 355 350 342 334 328 321 317 315 313 310 305 301 299 295 295 305 312 311 305 299 287 267 249 237 232 232 232 230 228 226 225 225 225 225 223 222 220 219 219 219 220 220 220 219 219 219 220 220 221 221 222 223 224 224 225 225 225 225 224 223 222 222 222 223 223 224 225 225 226 226 226 226 227 228 229 229 228 229 229 230 229 229 229 229 230 231 232
356 355 351 343 336 328 322 319 317 314 312 311 310 310 308 309 316 323 322 317 311 300 277 254 239 230 227 227 228 227 226 224 223 224 225 225 224 222 221 220 220 220 221 221 221 220 220 220 221 221 222 222 223 224 224 225 226 226 226 225 224 223 222 222 223 223 224 225 225 226 227 227 227 227 228 229 230 230 230 230 230 231 230 229 229 230 231 232
355 354 351 345 337 329 324 322 317 315 316 318 319 319 320 321 326 332 334 329 322 312 291 264 244 232 227 225 225 225 225 224 223 222 222 224 224 224 223 221 221 221 221 221 222 221 221 221 221 222 222 222 223 224 224 225 226 227 227 227 226 225 223 223 223 223 224 224 225 226 226 227 227 227 228 228 229 230 230 230 231 232 231 231 231 231 232 233
355 354 351 345 337 329 326 324 318 317 320 323 324 325 326 328 332 337 342 340 334 325 306 281 255 237 228 224 223 224 224 223 222 221 220 221 222 223 224 223 222 222 221 222 222 222 222 222 222 222 223 223 224 224 224 225 226 227 227 228 227 226 225 224 223 223 224 224 224 225 226 227 228 228 228 228 229 230 230 230 230 231 232 232 232 233 233 234
354 354 351 346 336 328 326 324 318 318 322 323 325 327 330 333 335 340 345 348 345 336 320 299 273 247 232 225 222 222 223 223 222 221 219 219 219 220 222 223 223 223 223 223 223 223 223 224 223 223 223 223 224 225 225 225 226 226 227 228 228 228 227 226 225 224 224 224 224 224 225 227 227 228 229 229 229 230 231 231 231 231 231 231 232 232 232 233
354 353 351 346 336 327 325 322 318 319 321 322 324 328 331 334 336 341 348 353 352 346 333 316 294 266 243 231 224 221 221 221 222 222 221 219 217 217 219 221 222 223 223 223 224 224 224 224 225 225 225 224 225 225 226 226 226 227 227 228 229 229 228 227 227 226 225 224 224 224 225 226 227 228 228 229 230 230 231 232 231 231 231 231 231 231 231 231
354 353 351 346 337 328 324 319 317 319 320 321 324 327 330 334 337 343 350 354 355 353 344 333 316 290 260 241 231 225 221 219 219 220 221 221 219 217 217 219 221 222 223 223 224 224 224 225 225 226 226 226 225 226 226 226 227 227 228 228 229 229 229 229 228 227 226 226 226 225 225 226 227 228 228 229 229 230 231 232 232 232 232 232 232 231 231 230
353 353 351 346 338 329 323 318 317 318 318 321 325 326 329 334 338 343 349 354 356 356 352 345 335 316 284 256 240 231 225 221 219 219 220 221 221 219 217 218 219 221 223 223 224 224 225 225 225 226 227 226 226 226 227 226 227 227 228 228 229 230 230 230 229 228 228 227 227 227 227 227 227 228 228 228 229 229 230 231 232 232 232 232 233 233 232 231
353 352 351 346 338 330 324 318 317 318 319 321 325 326 327 332 338 342 346 352 356 357 356 352 346 334 312 278 253 239 230 225 222 220 219 219 220 220 219 218 218 220 221 223 224 224 225 225 225 226 227 227 227 227 228 227 227 227 227 228 228 229 230 230 230 230 229 228 228 228 228 227 228 228 229 229 229 229 230 230 231 232 232 233 233 233 233 233
Height
10907 10905 10904 10903 10902 10901 10901 10900 10900 10899 10898 10897 10897 10897 10897 10898 10898 10899 10899 10901 10902 10904 10907 10909 10911 10913 10915 10918 10921 10923 10926 10929 10933 10936 10939 10942 10944 10947 10950 10954 10957 10960 10963 10967 10970 10973 10977 10981 10984 10987 10989 10991 10994 10996 10999 11002 11004 11006 11008 11010 11012 11014 11015 11017 11018 11019 11019 11020 11020 11020 11020 11020 11021 11022 11022 11022 11022 11021 11021 11021 11021 11021 11020 11020 11019 11017 11015 11013
10904 10903 10902 10901 10899 10898 10897 10897 10896 10896 10895 10894 10894 10894 10894 10894 10894 10895 10895 10896 10898 10900 10902 10904 10907 10909 10911 10914 10916 10919 10922 10925 10929 10932 10935 10938 10941 10944 10946 10950 10954 10957 10960 10963 10966 10969 10974 10978 10981 10985 10988 10990 10992 10995 10998 11000 11003 11005 11007 11009 11011 11013 11015 11016 11018 11019 11019 11020 11020 11019 11019 11019 11020 11021 11022 11022 11022 11021 11021 11022 11022 11022 11022 11021 11020 11018 11016 11014
10902 10901 10899 10898 10897 10895 10894 10893 10892 10892 10891 10891 10891 10890 10890 10890 10891 10891 10891 10892 10893 10895 10897 10899 10902 10904 10906 10909 10912 10915 10917 10920 10924 10928 10932 10934 10937 10940 10944 10947 10951 10954 10957 10959 10962 10966 10971 10975 10979 10982 10985 10988 10990 10993 10996 10999 11001 11004 11006 11009 11010 11012 11014 11015 11017 11019 11019 11019 11019 11018 11018 11019 11019 11021 11021 11022 11023 11022 11022 11023 11023 11023 11023 11022 11020 11019 11017 11016
10899 10897 10896 10895 10893 10892 10891 10889 10888 10887 10887 10887 10887 10887 10886 10886 10886 10887 10887 10888 10889 10890 10892 10894 10897 10900 10902 10904 10907 10910 10912 10915 10920 10924 10928 10930 10933 10937 10941 10944 10948 10951 10953 10956 10959 10963 10968 10972 10975 10979 10982 10986 10988 10991 10994 10997 11000 11002 11005 11008 11009 11011 11013 11014 11016 11017 11017 11017 11018 11018 11018 11018 11020 11021 11022 11023 11023 11023 11023 11023 11023 11023 11023 11022 11021 11019 11018 11017
10895 10893 10892 10891 10889 10888 10887 10885 10884 10883 10882 10882 10882 10882 10882 10882 10882 10882 10883 10884 10884 10885 10887 10889 10892 10894 10897 10899 10902 10905 10908 10911 10915 10919 10923 10926 10929 10933 10937 10941 10945 10948 10950 10952 10955 10960 10965 10969 10972 10976 10980 10983 10986 10989 10992 10995 10998 11000 11003 11006 11008 11011 11013 11014 11015 11016 11016 11016 11017 11017 11018 11019 11020 11021 11022 11024 11024 11023 11024 11024 11023 11023 11023 11022 11021 11020 11019 11018
10891 10889 10888 10886 10885 10884 10882 10881 10880 10878 10878 10877 10876 10876 10877 10877 10877 10877 10878 10879 10879 10880 10882 10883 10886 10889 10891 10894 10897 10900 10904 10907 10910 10914 10918 10922 10925 10928 10932 10936 10940 10943 10946 10949 10952 10957 10962 10966 10970 10973 10977 10981 10984 10987 10990 10992 10995 10998 11002 11005 11008 11011 11013 11015 11016 11016 11015 11015 11015 11016 11018 11020 11020 11021 11023 11024 11024 11024 11024 11024 11024 11023 11023 11022 11022 11021 11019 11018
10887 10885 10883 10881 10880 10879 10877 10876 10875 10873 10872 10872 10871 10870 10870 10871 10872 10873 10873 10873 10874 10875 10877 10878 10880 10883 10886 10889 10892 10895 10899 10902 10905 10909 10913 10917 10920 10924 10927 10932 10936 10939 10943 10945 10949 10953 10958 10963 10967 10971 10975 10978 10981 10984 10986 10989 10993 10996 11000 11004 11008 11012 11014 11015 11015 11014 11013 11013 11014 11015 11018 11019 11020 11021 11022 11024 11024 11024 11023 11024 11024 11024 11023 11023 11023 11021 11020 11019
10882 10880 10878 10876 10874 10873 10872 10870 10869 10868 10867 10866 10865 10864 10864 10864 10865 10867 10867 10867 10868 10869 10871 10873 10875 10877 10880 10883 10886 10890 10893 10897 10900 10904 10908 10911 10915 10918 10923 10927 10931 10935 10939 10942 10945 10950 10955 10960 10964 10968 10972 10975 10978 10980 10983 10987 10991 10995 10999 11003 11008 11012 11014 11012 11011 11011 11012 11013 11014 11016 11017 11018 11019 11021 11022 11023 11024 11024 11023 11024 11024 11024 11024 11023 11023 11022 11021 11020
10877 10875 10873 10871 10869 10868 10866 10864 10863 10861 10861 10860 10859 10859 10858 10858 10858 10859 10861 10861 10861 10863 10865 10867 10869 10871 10874 10877 10880 10884 10887 10891 10894 10898 10902 10906 10909 10913 10917 10922 10927 10930 10934 10938 10942 10946 10951 10956 10961 10965 10968 10972 10975 10978 10981 10985 10989 10993 10997 11002 11008 11012 11011 11007 11007 11009 11011 11013 11015 11016 11017 11018 11019 11021 11022 11023 11023 11024 11024 11024 11024 11025 11024 11024 11024 11023 11022 11021
10871 10868 10866 10864 10862 10861 10860 10858 10856 10854 10853 10853 10852 10852 10851 10851 10851 10851 10853 10854 10855 10856 10858 10860 10863 10865 10867 10870 10874 10877 10881 10885 10889 10893 10897 10900 10904 10907 10912 10917 10921 10925 10929 10933 10937 10942 10948 10954 10959 10961 10965 10969 10972 10975 10978 10982 10987 10991 10995 11001 11007 11010 11007 11003 11005 11009 11011 11013 11014 11015 11016 11018 11019 11020 11022 11022 11023 11023 11023 11024 11024 11025 11025 11025 11024 11023 11022 11022
10865 10862 10859 10857 10855 10853 10852 10850 10848 10846 10845 10845 10844 10844 10844 10844 10843 10843 10845 10846 10848 10849 10851 10853 10856 10858 10861 10864 10867 10871 10874 10879 10883 10887 10890 10894 10898 10902 10906 10912 10916 10920 10924 10929 10934 10940 10946 10951 10954 10957 10961 10964 10968 10971 10975 10979 10984 10988 10993 11000 11007 11009 11004 11000 11003 11007 11010 11013 11014 11015 11016 11017 11017 11019 11021 11022 11023 11023 11023 11024 11024 11025 11025 11025 11024 11024 11023 11023
10859 10855 10852 10849 10847 10844 10843 10841 10839 10837 10836 10835 10835 10835 10836 10836 10835 10835 10836 10838 10840 10842 10843 10845 10848 10851 10854 10857 10861 10864 10868 10872 10876 10880 10884 10888 10893 10897 10901 10906 10911 10915 10920 10925 10932 10938 10942 10946 10950 10953 10957 10960 10964 10968 10971 10976 10981 10985 10991 10997 11003 11004 11000 10999 11002 11006 11010 11012 11013 11014 11015 11016 11016 11018 11020 11021 11022 11023 11023 11024 11024 11025 11025 11025 11024 11025 11024 11024
10851 10848 10844 10841 10838 10835 10833 10831 10829 10827 10826 10825 10824 10825 10826 10826 10826 10826 10827 10829 10831 10833 10836 10838 10841 10844 10847 10851 10854 10857 10860 10863 10868 10873 10878 10883 10887 10891 10896 10901 10906 10911 10916 10922 10928 10933 10937 10942 10946 10948 10952 10957 10961 10964 10968 10973 10977 10982 10988 10993 10997 10997 10997 10998 11001 11005 11009 11010 11011 11012 11014 11015 11016 11017 11018 11020 11021 11022 11023 11023 11024 11025 11025 11025 11025 11025 11025 11024
10843 10839 10835 10831 10828 10825 10822 10820 10818 10816 10815 10814 10813 10814 10815 10816 10816 10817 10818 10820 10822 10825 10828 10831 10834 10837 10841 10844 10845 10848 10852 10856 10862 10868 10873 10878 10882 10886 10891 10896 10901 10906 10912 10918 10923 10927 10932 10937 10940 10942 10948 10954 10957 10959 10964 10969 10974 10979 10984 10989 10993 10994 10994 10996 10999 11003 11006 11008 11009 11011 11013 11014 11015 11016 11016 11018 11019 11021 11022 11022 11023 11024 11025 11025 11025 11025 11026 11025
10833 10829 10824 10820 10817 10813 10810 10808 10806 10804 10802 10802 10801 10802 10803 10805 10806 10807 10808 10810 10812 10816 10820 10824 10827 10830 10833 10836 10837 10840 10845 10851 10857 10862 10868 10872 10876 10881 10886 10891 10896 10903 10908 10913 10918 10922 10927 10931 10934 10939 10945 10949 10951 10955 10960 10965 10970 10975 10980 10985 10989 10991 10993 10994 10997 11000 11003 11006 11008 11010 11011 11013 11015 11015 11015 11015 11017 11020 11021 11022 11022 11024 11025 11025 11025 11025 11026 11025
10823 10818 10812 10808 10804 10800 10796 10794 10792 10791 10789 10789 10788 10789 10791 10793 10795 10796 10797 10800 10803 10807 10811 10816 10819 10823 10825 10828 10830 10834 10840 10846 10851 10856 10861 10866 10871 10876 10880 10886 10892 10898 10903 10908 10912 10917 10922 10925 10930 10936 10941 10944 10947 10950 10956 10961 10965 10971 10976 10980 10985 10988 10990 10992 10995 10998 11001 11004 11006 11008 11009 11011 11013 11014 11014 11015 11016 11018 11019 11021 11022 11023 11024 11025 11025 11025 11026 11026
10812 10806 10800 10794 10790 10785 10782 10779 10777 10776 10775 10775 10775 10775 10778 10781 10783 10784 10786 10790 10794 10798 10803 10807 10811 10814 10817 10821 10825 10831 10837 10840 10844 10849 10855 10860 10865 10870 10874 10880 10886 10892 10897 10902 10906 10910 10915 10920 10927 10932 10935 10939 10943 10945 10950 10955 10960 10966 10971 10976 10980 10984 10986 10989 10992 10995 10999 11002 11004 11006 11008 11010 11012 11013 11014 11014 11015 11016 11018 11020 11021 11022 11024 11024 11024 11025 11026 11026
10800 10792 10786 10780 10775 10770 10766 10763 10760 10759 10760 10760 10760 10762 10765 10767 10769 10772 10775 10779 10784 10789 10794 10797 10802 10806 10810 10814 10820 10827 10831 10833 10837 10842 10847 10852 10857 10862 10868 10874 10881 10886 10891 10896 10900 10904 10909 10915 10922 10927 10931 10935 10937 10939 10943 10949 10956 10962 10966 10971 10976 10979 10983 10987 10990 10993 10996 10999 11002 11004 11006 11009 11011 11013 11014 11014 11014 11015 11016 11019 11021 11022 11023 11023 11024 11025 11025 11026
10787 10778 10771 10765 10759 10753 10749 10745 10743 10742 10743 10744 10746 10748 10751 10754 10757 10760 10763 10768 10773 10779 10783 10788 10792 10797 10802 10806 10813 10819 10822 10824 10828 10833 10837 10843 10849 10856 10861 10868 10875 10881 10886 10890 10894 10898 10903 10910 10916 10921 10924 10926 10927 10931 10939 10947 10954 10958 10962 10968 10973 10977 10980 10984 10987 10991 10994 10997 11000 11003 11005 11007 11009 11011 11012 11013 11014 11015 11016 11018 11020 11021 11022 11023 11024 11025 11025 11026
10773 10764 10756 10749 10742 10736 10731 10728 10726 10725 10726 10728 10731 10734 10737 10740 10744 10748 10752 10756 10762 10767 10772 10778 10783 10788 10793 10799 10805 10810 10813 10815 10819 10824 10830 10836 10843 10849 10855 10861 10868 10874 10879 10882 10887 10892 10898 10904 10909 10911 10913 10916 10922 10929 10937 10944 10949 10952 10958 10965 10970 10973 10977 10980 10984 10987 10990 10994 10998 11001 11004 11005 11007 11009 11010 11011 11012 11014 11016 11018 11019 11021 11021 11022 11024 11024 11025 11026
10760 10749 10740 10733 10726 10720 10715 10712 10710 10709 10710 10712 10715 10719 10722 10727 10731 10736 10741 10745 10750 10756 10762 10768 10773 10779 10784 10789 10795 10800 10804 10808 10813 10818 10824 10830 10837 10843 10848 10855 10861 10867 10871 10875 10881 10887 10893 10898 10898 10900 10905 10914 10921 10928 10934 10940 10944 10949 10955 10962 10966 10969 10973 10976 10979 10982 10986 10990 10994 10998 11001 11002 11005 11006 11008 11009 11011 11013 11015 11016 11018 11019 11020 11022 11023 11024 11025 11025
10746 10735 10725 10717 10710 10705 10701 10698 10696 10696 10697 10699 10702 10705 10708 10713 10720 10725 10729 10734 10740 10746 10752 10758 10764 10770 10775 10779 10785 10791 10796 10800 10805 10810 10816 10823 10829 10835 10841 10848 10853 10858 10863 10870 10875 10881 10886 10887 10886 10893 10903 10911 10917 10923 10930 10936 10940 10944 10951 10956 10960 10964 10967 10971 10974 10978 10982 10986 10990 10994 10996 10999 11001 11004 11006 11007 11009 11010 11012 11013 11015 11018 11020 11021 11022 11023 11024 11025
10733 10721 10711 10704 10698 10694 10690 10688 10686 10686 10687 10688 10690 10693 10696 10702 10708 10713 10718 10723 10730 10737 10742 10748 10755 10760 10764 10769 10775 10781 10787 10793 10797 10802 10808 10814 10820 10826 10833 10839 10844 10851 10858 10864 10869 10874 10875 10874 10878 10890 10900 10906 10912 10918 10925 10931 10935 10939 10944 10950 10954 10958 10962 10966 10970 10974 10978 10982 10986 10989 10991 10995 10998 11001 11004 11006 11006 11007 11008 11011 11013 11016 11019 11020 11021 11022 11023 11024
10720 10709 10699 10693 10688 10684 10682 10679 10678 10678 10679 10680 10681 10683 10687 10691 10697 10702 10708 10714 10721 10728 10733 10739 10744 10749 10753 10758 10765 10773 10780 10785 10789 10794 10801 10807 10812 10819 10824 10830 10836 10844 10851 10857 10862 10865 10863 10866 10876 10887 10894 10901 10908 10914 10921 10926 10929 10933 10938 10943 10948 10953 10957 10962 10966 10969 10973 10977 10981 10986 10988 10992 10996 10999 11002 11003 11003 11004 11006 11008 11011 11014 11016 11019 11021 11022 11022 11023
10709 10698 10690 10684 10680 10677 10674 10673 10672 10672 10672 10673 10674 10676 10679 10683 10687 10692 10698 10704 10712 10719 10724 10729 10734 10738 10743 10749 10756 10764 10770 10776 10781 10786 10792 10799 10806 10811 10817 10823 10830 10837 10844 10850 10855 10855 10855 10865 10876 10882 10888 10897 10903 10909 10915 10920 10924 10928 10931 10936 10943 10948 10953 10957 10960 10964 10968 10972 10977 10982 10986 10989 10994 10996 10998 10999 11000 11002 11004 11005 11008 11011 11014 11017 11019 11021 11022 11023
10700 10690 10683 10678 10674 10671 10669 10668 10667 10667 10667 10668 10669 10671 10673 10676 10680 10684 10689 10695 10702 10709 10715 10720 10724 10730 10736 10742 10748 10755 10762 10768 10774 10779 10784 10791 10798 10803 10810 10817 10823 10830 10836 10842 10846 10846 10852 10864 10871 10875 10883 10891 10897 10903 10908 10913 10918 10922 10925 10930 10937 10943 10947 10951 10954 10958 10963 10969 10973 10978 10982 10987 10991 10993 10995 10996 10997 10999 11001 11002 11005 11008 11011 11014 11017 11019 11021 11022
10693 10684 10678 10673 10670 10666 10664 10663 10662 10662 10662 10663 10665 10667 10669 10671 10674 10678 10682 10687 10694 10700 10706 10710 10716 10723 10729 10735 10741 10747 10755 10761 10766 10771 10777 10784 10790 10796 10803 10810 10816 10823 10829 10835 10839 10841 10849 10859 10865 10870 10877 10884 10891 10896 10900 10906 10911 10913 10917 10925 10931 10936 10941 10945 10949 10954 10961 10967 10971 10974 10979 10983 10987 10989 10991 10993 10995 10996 10998 11000 11002 11005 11009 11012 11014 11017 11019 11020
10688 10680 10673 10669 10666 10663 10661 10660 10659 10659 10659 10660 10661 10663 10665 10667 10670 10673 10677 10682 10686 10691 10697 10703 10710 10717 10722 10728 10734 10741 10748 10754 10759 10765 10771 10776 10783 10789 10795 10801 10807 10815 10822 10829 10832 10836 10845 10854 10860 10865 10872 10878 10883 10887 10893 10901 10902 10904 10911 10920 10925 10930 10936 10941 10946 10952 10960 10965 10967 10970 10974 10978 10982 10984 10986 10989 10991 10994 10996 10998 11000 11003 11006 11009 11011 11014 11016 11018
10683 10676 10670 10666 10663 10660 10658 10657 10656 10656 10657 10658 10659 10661 10663 10664 10667 10669 10673 10677 10681 10685 10691 10698 10705 10711 10716 10721 10727 10734 10740 10747 10753 10759 10764 10770 10776 10781 10786 10792 10800 10808 10816 10823 10826 10832 10842 10850 10856 10862 10868 10872 10874 10879 10889 10895 10894 10897 10906 10915 10921 10926 10933 10938 10943 10951 10958 10961 10962 10965 10970 10974 10977 10980 10983 10986 10989 10992 10994 10996 10999 11001 11003 11006 11009 11012 11014 11015
10681 10674 10668 10664 10661 10659 10657 10655 10655 10655 10656 10657 10658 10659 10660 10662 10664 10666 10669 10673 10677 10681 10686 10692 10698 10704 10710 10715 10721 10727 10733 10740 10747 10753 10758 10763 10768 10773 10779 10786 10794 10803 10811 10815 10819 10828 10839 10845 10852 10858 10861 10862 10866 10874 10884 10886 10886 10892 10902 10911 10918 10924 10930 10935 10941 10949 10954 10955 10957 10960 10965 10969 10973 10976 10980 10983 10987 10990 10992 10995 10997 10999 11002 11004 11007 11010 11012 11013
10679 10672 10667 10664 10660 10658 10656 10654 10654 10654 10655 10655 10656 10657 10658 10659 10661 10662 10665 10669 10673 10677 10681 10686 10692 10698 10703 10709 10715 10721 10726 10733 10739 10744 10749 10755 10760 10767 10773 10781 10789 10797 10804 10809 10814 10824 10833 10840 10847 10851 10851 10853 10859 10868 10876 10877 10880 10890 10899 10907 10915 10921 10927 10933 10939 10945 10948 10948 10950 10955 10960 10964 10968 10971 10976 10981 10984 10988 10991 10993 10996 10998 11000 11003 11005 11008 11010 11011
10678 10671 10667 10663 10660 10657 10655 10654 10654 10654 10654 10654 10655 10655 10656 10657 10659 10660 10663 10666 10670 10674 10677 10682 10687 10691 10696 10701 10707 10713 10719 10725 10731 10736 10741 10747 10753 10760 10767 10774 10783 10791 10798 10802 10809 10818 10826 10833 10839 10841 10842 10846 10853 10861 10867 10871 10877 10887 10895 10903 10912 10918 10924 10930 10934 10939 10940 10940 10945 10951 10955 10958 10962 10968 10974 10978 10982 10985 10988 10991 10993 10995 10997 11000 11002 11004 11007 11009
10677 10671 10666 10663 10660 10657 10656 10654 10654 10653 10653 10654 10654 10654 10655 10656 10657 10659 10661 10664 10668 10671 10674 10678 10682 10686 10689 10694 10700 10705 10711 10717 10722 10728 10735 10741 10748 10755 10763 10771 10778 10785 10791 10795 10802 10811 10818 10825 10830 10833 10836 10842 10849 10855 10860 10865 10873 10882 10889 10898 10906 10913 10919 10924 10929 10933 10933 10933 10940 10947 10951 10953 10958 10965 10970 10974 10978 10981 10985 10988 10990 10992 10994 10997 10999 11002 11004 11005
10676 10671 10666 10663 10660 10657 10656 10654 10654 10653 10653 10653 10653 10654 10654 10655 10656 10659 10660 10663 10665 10668 10671 10675 10678 10682 10685 10689 10694 10699 10704 10710 10716 10723 10730 10737 10744 10752 10760 10767 10773 10778 10783 10788 10796 10805 10811 10818 10823 10827 10831 10837 10843 10848 10851 10857 10864 10872 10880 10889 10897 10904 10911 10915 10920 10923 10921 10924 10934 10942 10946 10948 10953 10960 10964 10968 10973 10977 10981 10984 10986 10989 10991 10994 10997 10999 11001 11002
10676 10671 10666 10663 10660 10658 10656 10655 10654 10654 10653 10653 10653 10653 10654 10655 10656 10658 10660 10662 10664 10666 10669 10671 10674 10678 10681 10684 10688 10693 10699 10706 10712 10718 10725 10732 10739 10746 10754 10759 10765 10770 10774 10781 10790 10797 10804 10810 10815 10820 10825 10831 10834 10837 10842 10849 10857 10864 10873 10882 10890 10898 10902 10904 10908 10909 10910 10919 10932 10938 10939 10940 10947 10955 10959 10964 10969 10972 10976 10979 10982 10986 10989 10991 10994 10996 10998 11000
10676 10671 10666 10663 10661 10658 10657 10656 10655 10654 10654 10654 10653 10653 10654 10655 10656 10657 10659 10660 10662 10664 10666 10668 10671 10674 10676 10678 10683 10688 10695 10701 10706 10712 10718 10725 10732 10738 10744 10750 10756 10762 10767 10775 10783 10789 10795 10801 10806 10811 10817 10821 10823 10828 10834 10842 10849 10858 10869 10879 10885 10888 10891 10895 10898 10900 10906 10920 10931 10934 10933 10935 10943 10952 10955 10960 10964 10967 10971 10974 10977 10982 10985 10988 10990 10993 10995 10995
10676 10671 10667 10664 10661 10659 10658 10657 10656 10656 10655 10655 10655 10654 10654 10655 10656 10657 10658 10659 10660 10662 10664 10665 10667 10669 10671 10674 10678 10684 10690 10695 10701 10706 10711 10718 10724 10730 10735 10741 10749 10754 10760 10768 10774 10780 10787 10792 10797 10803 10807 10810 10814 10820 10827 10834 10842 10853 10864 10872 10874 10877 10883 10889 10892 10895 10904 10918 10926 10928 10928 10931 10941 10948 10951 10955 10958 10961 10965 10968 10972 10977 10980 10983 10986 10987 10988 10989
10677 10671 10668 10665 10662 10660 10658 10657 10657 10656 10656 10655 10655 10655 10654 10655 10655 10656 10657 10657 10658 10660 10661 10662 10663 10664 10666 10670 10674 10680 10684 10689 10695 10700 10706 10712 10717 10722 10727 10734 10741 10747 10753 10760 10767 10773 10779 10783 10788 10793 10797 10802 10807 10812 10819 10826 10836 10846 10855 10861 10864 10870 10879 10884 10886 10891 10900 10911 10918 10922 10923 10928 10937 10943 10946 10949 10952 10954 10959 10963 10967 10972 10975 10978 10980 10981 10982 10986
10677 10672 10668 10665 10662 10660 10659 10657 10657 10656 10655 10655 10654 10654 10654 10654 10654 10655 10655 10655 10656 10656 10657 10658 10659 10660 10662 10666 10670 10674 10678 10683 10688 10693 10699 10704 10709 10713 10718 10725 10732 10738 10745 10752 10759 10765 10769 10774 10780 10785 10789 10794 10799 10804 10811 10820 10828 10836 10845 10852 10857 10865 10872 10876 10881 10886 10894 10903 10910 10914 10918 10924 10932 10936 10939 10943 10946 10949 10953 10957 10962 10966 10970 10973 10974 10976 10980 10985
10677 10671 10668 10665 10662 10660 10658 10657 10656 10655 10654 10654 10653 10653 10652 10652 10652 10652 10652 10652 10652 10652 10652 10653 10653 10654 10657 10661 10665 10668 10672 10676 10681 10686 10691 10696 10700 10706 10711 10718 10724 10730 10738 10744 10751 10756 10760 10766 10773 10777 10782 10786 10791 10797 10805 10812 10819 10826 10835 10844 10851 10858 10865 10871 10877 10882 10888 10896 10903 10908 10914 10920 10924 10928 10932 10936 10939 10942 10946 10951 10956 10960 10964 10967 10969 10972 10976 10981
10675 10670 10666 10664 10661 10659 10657 10656 10655 10654 10653 10652 10652 10651 10651 10650 10649 10649 10648 10647 10647 10647 10647 10647 10647 10648 10652 10656 10659 10662 10665 10669 10674 10678 10683 10687 10693 10699 10706 10712 10717 10723 10730 10736 10742 10748 10753 10759 10764 10769 10773 10777 10783 10791 10798 10804 10810 10816 10826 10836 10843 10850 10859 10865 10871 10877 10883 10890 10897 10903 10910 10914 10916 10920 10925 10929 10932 10936 10940 10945 10949 10953 10957 10960 10963 10966 10971 10974
10674 10669 10665 10662 10660 10658 10656 10654 10653 10652 10651 10650 10650 10649 10648 10647 10645 10644 10642 10641 10640 10640 10640 10640 10641 10642 10644 10649 10652 10655 10657 10661 10666 10670 10675 10680 10687 10694 10700 10706 10711 10716 10722 10728 10734 10739 10745 10751 10756 10760 10764 10770 10777 10783 10789 10794 10800 10808 10818 10827 10835 10844 10852 10857 10864 10871 10877 10883 10890 10897 10903 10908 10911 10915 10919 10923 10926 10930 10934 10938 10942 10946 10950 10953 10957 10962 10965 10968
10674 10669 10664 10661 10658 10656 10655 10653 10651 10650 10649 10648 10647 10646 10645 10644 10642 10640 10637 10635 10633 10633 10632 10632 10633 10634 10637 10640 10644 10647 10650 10655 10660 10664 10668 10675 10682 10688 10694 10699 10704 10709 10714 10720 10726 10731 10737 10743 10746 10751 10756 10762 10768 10773 10778 10785 10792 10801 10809 10819 10829 10838 10846 10852 10859 10865 10868 10874 10882 10888 10895 10902 10906 10908 10911 10915 10919 10924 10927 10931 10935 10939 10943 10947 10952 10956 10959 10961
10674 10668 10664 10660 10657 10655 10653 10651 10649 10648 10646 10645 10644 10643 10642 10641 10639 10636 10632 10629 10627 10626 10624 10624 10625 10627 10629 10632 10636 10640 10643 10648 10653 10657 10662 10669 10675 10681 10686 10692 10697 10701 10706 10712 10717 10723 10730 10734 10738 10742 10747 10752 10757 10763 10770 10776 10784 10792 10801 10812 10822 10831 10839 10846 10851 10857 10861 10867 10875 10881 10887 10894 10897 10899 10904 10908 10912 10917 10921 10924 10928 10932 10936 10942 10946 10949 10951 10954
10672 10667 10662 10658 10655 10653 10651 10649 10647 10645 10644 10642 10641 10639 10638 10636 10635 10633 10628 10624 10621 10620 10618 10617 10618 10620 10621 10624 10628 10632 10636 10640 10645 10651 10656 10662 10668 10673 10678 10683 10688 10693 10698 10703 10708 10715 10721 10725 10729 10734 10738 10743 10749 10755 10763 10771 10779 10787 10796 10806 10815 10822 10831 10837 10842 10849 10855 10861 10868 10874 10879 10884 10888 10893 10897 10900 10904 10909 10914 10918 10921 10925 10930 10936 10940 10942 10944 10948
10669 10664 10660 10656 10653 10650 10648 10646 10644 10643 10641 10639 10637 10636 10634 10632 10631 10629 10625 10620 10617 10614 10613 10612 10612 10613 10615 10617 10620 10624 10628 10633 10638 10644 10650 10655 10660 10665 10671 10676 10681 10685 10690 10695 10700 10707 10711 10715 10720 10725 10730 10736 10742 10749 10758 10766 10773 10780 10788 10797 10805 10813 10821 10828 10834 10841 10847 10853 10860 10866 10870 10874 10879 10884 10888 10892 10897 10901 10906 10911 10916 10920 10925 10930 10934 10936 10939 10943
10667 10662 10657 10653 10651 10648 10646 10644 10642 10639 10638 10636 10635 10633 10631 10629 10627 10625 10622 10618 10613 10611 10609 10607 10607 10608 10610 10612 10614 10617 10621 10626 10631 10637 10642 10646 10652 10657 10663 10669 10673 10678 10683 10687 10692 10699 10703 10706 10711 10716 10722 10730 10736 10742 10751 10759 10765 10772 10779 10787 10795 10803 10811 10818 10825 10831 10837 10845 10852 10857 10861 10865 10869 10874 10879 10884 10889 10892 10898 10905 10909 10914 10919 10923 10927 10930 10933 10937
10666 10660 10655 10652 10648 10645 10643 10642 10639 10637 10635 10634 10632 10631 10629 10626 10624 10622 10619 10616 10612 10608 10606 10604 10604 10604 10606 10607 10609 10612 10616 10620 10625 10630 10634 10638 10644 10650 10654 10659 10665 10670 10675 10680 10684 10690 10695 10699 10704 10709 10715 10723 10730 10737 10745 10753 10759 10765 10772 10779 10785 10793 10800 10808 10815 10821 10828 10835 10842 10847 10852 10856 10861 10866 10870 10876 10881 10886 10891 10896 10901 10906 10910 10914 10918 10922 10926 10931
10665 10659 10654 10650 10647 10643 10641 10639 10637 10635 10633 10632 10630 10629 10627 10625 10622 10620 10617 10613 10610 10607 10604 10602 10601 10601 10602 10603 10605 10607 10610 10614 10619 10623 10627 10631 10637 10642 10646 10650 10655 10661 10667 10672 10676 10682 10687 10692 10698 10704 10710 10719 10726 10732 10740 10747 10753 10759 10765 10771 10776 10782 10790 10797 10805 10812 10819 10826 10832 10838 10843 10847 10852 10857 10862 10867 10873 10878 10882 10886 10891 10896 10900 10904 10909 10913 10918 10924
10663 10657 10652 10648 10645 10642 10640 10638 10636 10634 10632 10630 10628 10626 10625 10624 10621 10618 10615 10612 10609 10606 10604 10601 10599 10598 10599 10600 10601 10603 10606 10608 10612 10616 10620 10625 10630 10635 10639 10643 10647 10652 10658 10663 10668 10674 10680 10685 10692 10698 10704 10713 10720 10726 10732 10740 10746 10752 10758 10764 10768 10773 10779 10787 10794 10802 10810 10817 10823 10829 10835 10840 10844 10849 10853 10858 10863 10868 10872 10876 10881 10886 10891 10896 10900 10904 10910 10916
10661 10655 10650 10646 10643 10640 10638 10636 10634 10632 10631 10629 10626 10624 10623 10622 10620 10617 10614 10611 10608 10606 10603 10601 10599 10597 10596 10597 10598 10600 10602 10604 10606 10609 10613 10617 10622 10627 10632 10637 10641 10645 10650 10655 10660 10667 10671 10677 10686 10692 10696 10704 10712 10718 10723 10730 10736 10744 10750 10754 10759 10764 10769 10776 10783 10791 10800 10808 10815 10821 10827 10833 10836 10839 10843 10848 10853 10858 10862 10867 10871 10876 10883 10888 10892 10896 10902 10907
10659 10653 10648 10644 10640 10638 10636 10634 10632 10631 10629 10627 10625 10623 10621 10620 10618 10616 10614 10611 10608 10605 10602 10601 10598 10596 10595 10595 10595 10596 10597 10599 10602 10604 10607 10611 10615 10619 10625 10630 10635 10639 10643 10648 10653 10659 10664 10671 10679 10685 10689 10696 10705 10710 10714 10720 10726 10733 10738 10743 10748 10753 10759 10766 10773 10781 10791 10798 10805 10811 10816 10821 10826 10830 10834 10839 10844 10849 10853 10858 10863 10870 10876 10881 10885 10889 10893 10897